Weather History for Oxford, MS

Change the Weather History Date:

Sunday, May 5, 2013

  Actual Average Record
Temperature  
Mean Temperature 48 °F -  
Max Temperature 55 °F 76 °F 93 °F (1952)
Min Temperature 42 °F 51 °F 36 °F (1957)
Degree Days  
Heating Degree Days 16    
Moisture  
Dew Point 44 °F    
Average Humidity 85    
Maximum Humidity 100    
Minimum Humidity 58    
Precipitation  
Precipitation 0.33 in - - ()
Sea Level Pressure  
Sea Level Pressure 29.93 in    
Wind  
Wind Speed 3 mph (NW)    
Max Wind Speed 13 mph    
Max Gust Speed -    
Visibility 8 miles    
Events Rain    
Averages and records for this station are not official NWS values.
T = Trace of Precipitation, MM = Missing Value Source: NWS Daily Summary

Daily Weather History Graph

Daily Weather History Graph

Search for Another Location

Airport:

Trip Planner

Search our weather history database for the weather conditions in past years. The results will help you decide how hot, cold, wet, or windy it might be!

Date:

Astronomy

May. 05, 2013 Rise Set
Actual Time 6:04 AM CDT 7:45 PM CDT
Civil Twilight 5:37 AM CDT 8:13 PM CDT
Nautical Twilight 5:04 AM CDT 8:45 PM CDT
Astronomical Twilight 4:29 AM CDT 9:20 PM CDT
Moon 3:23 AM CDT (5/5) 3:55 PM CDT (5/5)
Length of Visible Light 14h 36m
Length of Day
13h 41m
Waning Crescent, 18% of the Moon is Illuminated
May 5
Waning Crescent
May 9
New
May 17
First Quarter
May 24
Full
May 31
Last Quarter

Hourly Weather History & Observations

Time (CDT) Temp. Windchill Dew Point Humidity Pressure Visibility Wind Dir Wind Speed Gust Speed Precip Events Conditions
12:15 AM 44.6 °F - 44.6 °F 100% 29.90 in 10.0 mi Calm Calm - N/A   Overcast
12:35 AM 46.4 °F - 44.6 °F 93% 29.90 in 10.0 mi Calm Calm - N/A   Overcast
12:55 AM 46.4 °F - 44.6 °F 93% 29.90 in 9.0 mi Calm Calm - N/A   Overcast
1:15 AM 46.4 °F 45.2 °F 44.6 °F 93% 29.90 in 8.0 mi WNW 3.5 mph - N/A Rain Light Rain
1:35 AM 46.4 °F 45.2 °F 44.6 °F 93% 29.90 in 7.0 mi WNW 3.5 mph - N/A Rain Light Rain
1:55 AM 44.6 °F 42.2 °F 44.6 °F 100% 29.89 in 3.0 mi NW 4.6 mph - 0.04 in Rain Rain
2:15 AM 44.6 °F 43.1 °F 44.6 °F 100% 29.89 in 3.0 mi NNW 3.5 mph - 0.02 in Rain Light Rain
2:35 AM 44.6 °F 42.2 °F 44.6 °F 100% 29.88 in 8.0 mi North 4.6 mph - 0.03 in   Overcast
2:55 AM 44.6 °F 42.2 °F 44.6 °F 100% 29.88 in 5.0 mi WNW 4.6 mph - 0.03 in Rain Light Rain
3:15 AM 44.6 °F 42.2 °F 42.8 °F 93% 29.88 in 2.0 mi North 4.6 mph - 0.05 in Rain Rain
3:35 AM 42.8 °F 41.1 °F 41.0 °F 93% 29.88 in 2.5 mi North 3.5 mph - 0.11 in Rain Rain
3:55 AM 42.8 °F 41.1 °F 41.0 °F 93% 29.88 in 2.5 mi NNE 3.5 mph - 0.19 in Rain Light Rain
4:35 AM 42.8 °F 40.1 °F 41.0 °F 93% 29.87 in 9.0 mi NE 4.6 mph - 0.03 in   Mostly Cloudy
4:55 AM 42.8 °F 41.1 °F 41.0 °F 93% 29.87 in 10.0 mi North 3.5 mph - 0.03 in   Mostly Cloudy
5:15 AM 42.8 °F 41.1 °F 41.0 °F 93% 29.88 in 9.0 mi North 3.5 mph - N/A   Overcast
5:35 AM 42.8 °F - 41.0 °F 93% 29.88 in 9.0 mi Calm Calm - N/A   Overcast
5:55 AM 42.8 °F 41.1 °F 42.8 °F 100% 29.89 in 5.0 mi North 3.5 mph - 0.01 in Rain Light Rain
6:15 AM 42.8 °F - 41.0 °F 93% 29.90 in 8.0 mi Calm Calm - N/A Rain Light Rain
6:35 AM 42.8 °F - 41.0 °F 93% 29.91 in 4.0 mi Calm Calm - 0.01 in Rain Light Rain
6:55 AM 42.8 °F - 41.0 °F 93% 29.91 in 3.0 mi Calm Calm - 0.03 in Rain Light Rain
7:15 AM 42.8 °F - 42.8 °F 100% 29.91 in 7.0 mi Calm Calm - N/A   Mostly Cloudy
7:35 AM 44.6 °F 43.1 °F 42.8 °F 93% 29.91 in 8.0 mi NNW 3.5 mph - N/A   Mostly Cloudy
7:55 AM 44.6 °F 43.1 °F 42.8 °F 93% 29.91 in 8.0 mi North 3.5 mph - N/A   Partly Cloudy
8:15 AM 44.6 °F 42.2 °F 44.6 °F 100% 29.92 in 8.0 mi North 4.6 mph - N/A   Mostly Cloudy
8:35 AM 44.6 °F 43.1 °F 42.8 °F 93% 29.92 in 8.0 mi NNW 3.5 mph - N/A Rain Light Rain
8:55 AM 44.6 °F 42.2 °F 44.6 °F 100% 29.93 in 4.0 mi NNW 4.6 mph - N/A Rain Light Rain
9:15 AM 44.6 °F 42.2 °F 44.6 °F 100% 29.93 in 5.0 mi North 4.6 mph - N/A Rain Light Rain
9:35 AM 46.4 °F 44.3 °F 44.6 °F 93% 29.93 in 3.0 mi North 4.6 mph - N/A Rain Light Rain
9:55 AM 46.4 °F 43.5 °F 44.6 °F 93% 29.93 in 3.0 mi North 5.8 mph - N/A Rain Light Rain
10:15 AM 46.4 °F 43.5 °F 44.6 °F 93% 29.93 in 5.0 mi North 5.8 mph - N/A Rain Light Rain
10:35 AM 46.4 °F 44.3 °F 44.6 °F 93% 29.94 in 5.0 mi North 4.6 mph - N/A Rain Light Rain
10:55 AM 46.4 °F 43.5 °F 44.6 °F 93% 29.95 in 7.0 mi North 5.8 mph - N/A   Overcast
11:15 AM 46.4 °F 42.9 °F 44.6 °F 93% 29.95 in 3.0 mi NNW 6.9 mph - N/A Rain Light Rain
11:35 AM 46.4 °F 42.9 °F 44.6 °F 93% 29.96 in 5.0 mi NNW 6.9 mph - N/A Rain Light Rain
11:55 AM 48.2 °F - 44.6 °F 87% 29.96 in 6.0 mi North 5.8 mph - N/A Rain Light Rain
12:15 PM 48.2 °F - 46.4 °F 93% 29.96 in 7.0 mi NNW 6.9 mph - N/A   Mostly Cloudy
12:35 PM 48.2 °F - 44.6 °F 87% 29.96 in 8.0 mi North 4.6 mph - N/A   Overcast
1:15 PM 48.2 °F - 44.6 °F 87% 29.96 in 10.0 mi NNW 5.8 mph - N/A   Overcast
1:35 PM 48.2 °F - 44.6 °F 87% 29.96 in 9.0 mi NNW 4.6 mph - N/A   Overcast
1:55 PM 48.2 °F - 44.6 °F 87% 29.96 in 8.0 mi NNW 4.6 mph - N/A   Mostly Cloudy
2:15 PM 50.0 °F - 44.6 °F 82% 29.96 in 8.0 mi NW 4.6 mph - N/A   Mostly Cloudy
2:35 PM 50.0 °F - 44.6 °F 82% 29.95 in 8.0 mi Calm Calm - N/A   Mostly Cloudy
2:55 PM 50.0 °F - 44.6 °F 82% 29.95 in 8.0 mi SSW 3.5 mph - N/A   Mostly Cloudy
3:15 PM 53.6 °F - 46.4 °F 77% 29.94 in 8.0 mi WSW 6.9 mph - N/A   Mostly Cloudy
3:35 PM 53.6 °F - 46.4 °F 77% 29.93 in 8.0 mi SW 6.9 mph - N/A   Mostly Cloudy
3:55 PM 53.6 °F - 44.6 °F 72% 29.93 in 8.0 mi Calm Calm - N/A   Mostly Cloudy
4:15 PM 55.4 °F - 44.6 °F 67% 29.93 in 8.0 mi West 5.8 mph - N/A   Mostly Cloudy
4:35 PM 55.4 °F - 44.6 °F 67% 29.93 in 9.0 mi West 3.5 mph - N/A   Mostly Cloudy
4:55 PM 55.4 °F - 44.6 °F 67% 29.93 in 9.0 mi WNW 3.5 mph - N/A   Mostly Cloudy
5:15 PM 55.4 °F - 42.8 °F 63% 29.93 in 9.0 mi WNW 5.8 mph - N/A   Overcast
5:35 PM 55.4 °F - 42.8 °F 63% 29.93 in 9.0 mi NW 8.1 mph - N/A   Mostly Cloudy
5:55 PM 55.4 °F - 41.0 °F 58% 29.93 in 8.0 mi NW 9.2 mph - N/A   Mostly Cloudy
6:15 PM 55.4 °F - 41.0 °F 58% 29.94 in 8.0 mi NW 12.7 mph - N/A   Mostly Cloudy
6:35 PM 55.4 °F - 41.0 °F 58% 29.94 in 8.0 mi NW 9.2 mph - N/A   Partly Cloudy
6:55 PM 53.6 °F - 41.0 °F 62% 29.94 in 8.0 mi NW 9.2 mph - N/A   Scattered Clouds
7:15 PM 53.6 °F - 41.0 °F 62% 29.95 in 10.0 mi NW 8.1 mph - N/A   Overcast
7:35 PM 53.6 °F - 42.8 °F 67% 29.95 in 9.0 mi NW 8.1 mph - N/A   Overcast
7:55 PM 51.8 °F - 42.8 °F 71% 29.95 in 10.0 mi NW 4.6 mph - N/A   Overcast
8:15 PM 51.8 °F - 42.8 °F 71% 29.95 in 10.0 mi NW 5.8 mph - N/A   Overcast
8:35 PM 50.0 °F - 42.8 °F 76% 29.95 in 10.0 mi WNW 3.5 mph - N/A   Overcast
8:55 PM 50.0 °F - 42.8 °F 76% 29.95 in 10.0 mi WNW 3.5 mph - N/A   Mostly Cloudy
9:35 PM 48.2 °F - 44.6 °F 87% 29.95 in 10.0 mi WNW 3.5 mph - N/A   Overcast
9:55 PM 48.2 °F - 42.8 °F 82% 29.95 in 10.0 mi WNW 4.6 mph - N/A   Mostly Cloudy
10:15 PM 48.2 °F - 42.8 °F 82% 29.95 in 10.0 mi West 3.5 mph - N/A   Clear
10:35 PM 48.2 °F - 42.8 °F 82% 29.95 in 10.0 mi WNW 3.5 mph - N/A   Mostly Cloudy
10:55 PM 48.2 °F - 44.6 °F 87% 29.94 in 10.0 mi WNW 4.6 mph - N/A   Overcast
11:15 PM 48.2 °F - 44.6 °F 87% 29.94 in 10.0 mi WNW 3.5 mph - N/A   Overcast
11:35 PM 48.2 °F - 44.6 °F 87% 29.93 in 10.0 mi West 4.6 mph - N/A   Overcast
11:55 PM 48.2 °F - 44.6 °F 87% 29.93 in 10.0 mi West 3.5 mph - N/A   Overcast